Miscellaneous Local Product
Issued by NWS Hastings, NE

Home | Current Version | Previous Version | Text Only | Print | Product List | Glossary Off
Versions: 1 2 3 4 5 6 7 8 9 10 11 12 13 14 15 16 17 18 19 20 21 22 23 24 25 26 27 28 29 30 31 32 33 34 35 36 37 38 39 40 41 42 43 44 45 46 47 48 49 50

000
AXUS43 KGID 040302
MISGRI

GID CWA HOURLY WEATHER ROUNDUP
NATIONAL WEATHER SERVICE HASTINGS NE
1000 PM CDT TUE MAY 03 2016

NOTE: "FAIR" INDICATES FEW OR NO CLOUDS BELOW 12,000 FEET WITH NO
SIGNIFICANT WEATHER AND/OR OBSTRUCTIONS TO VISIBILITY.

...SOUTH CENTRAL NEBRASKA...

CITY           SKY/WX    TMP DP  RH WIND       PRES   REMARKS
GRAND ISLAND   CLEAR     55  44  66 W8        29.98R
HASTINGS       CLEAR     55  43  63 W7        29.98S
KEARNEY        CLEAR     59  43  55 W7        30.00S
ORD            CLEAR     53  43  68 W8        29.97S
YORK           CLEAR     55  46  71 NW8       29.96R
AURORA         CLEAR     54  44  69 W6        29.97R
LEXINGTON      CLEAR     52  45  76 NW8       30.03R
HOLDREGE       CLEAR     57  42  57 W5        30.01S
HEBRON         CLEAR     57  46  65 W5        29.97S

...NEBRASKA PANHANDLE...

CITY           SKY/WX    TMP DP  RH WIND       PRES   REMARKS
CHADRON        CLEAR     50  42  74 SW5       30.11R
ALLIANCE       CLEAR     52  40  63 N9        30.12R
SCOTTSBLUFF    CLEAR     56  40  55 NE7       30.14R
SIDNEY         CLEAR     44  35  70 CALM      30.15R

...WESTERN AND NORTH CENTRAL NEBRASKA...

CITY           SKY/WX    TMP DP  RH WIND       PRES   REMARKS
VALENTINE      CLEAR     57  41  55 NW9       30.02R
AINSWORTH      CLEAR     56  43  61 W6        30.01S
ONEILL         CLEAR     58  44  60 W9        29.95S
BROKEN BOW     CLEAR     55  40  56 N5        30.01R
IMPERIAL       CLEAR     58  36  43 NW5       30.09R
NORTH PLATTE   CLEAR     48  40  73 NW6       30.06R
MCCOOK         CLEAR     53  39  59 W7        30.05R

...EASTERN NEBRASKA...

CITY           SKY/WX    TMP DP  RH WIND       PRES   REMARKS
NORFOLK        CLEAR     59  43  55 W10       29.88F
SO SIOUX CITY  PTCLDY    60  47  61 W8        29.83S
TEKAMAH        CLEAR     57  47  69 W12       29.84F
COLUMBUS       CLEAR     59  39  47 W8        29.92F
ALBION         CLEAR     55  42  62 NW5       29.93F
OMAHA EPPLEY   CLEAR     63  43  48 W7        29.86F
OFFUTT AFB     CLEAR     60  44  56 W6        29.87F
MILLARD        CLEAR     58  46  63 CALM      29.88F
LINCOLN        CLEAR     62  44  51 W7        29.93S
NEBRASKA CITY  CLEAR     57  43  59 W9        29.91S
BEATRICE       CLEAR     56  43  61 W6        29.94S
FALLS CITY     CLEAR     59  43  55 SW8       29.91S

...NORTHERN KANSAS...

CITY           SKY/WX    TMP DP  RH WIND       PRES   REMARKS
GOODLAND       CLEAR     49  37  63 NW5       30.11R
HILL CITY      CLEAR     52  45  77 CALM      30.05S
NORTON         CLEAR     54  39  58 W6        30.03S
PHILLIPSBURG   CLEAR     57  43  58 CALM      30.02S
SMITH CENTER   CLEAR     55  43  62 W3        30.01S
BELOIT         CLEAR     54  45  71 CALM      29.99S
HAYS           CLEAR     54  39  58 W5        30.05S
RUSSELL        CLEAR     56  46  69 W6        30.02R
CONCORDIA      CLEAR     58  42  55 W5        29.98S
SALINA         CLEAR     59  45  59 W8        30.00R
TOPEKA         CLEAR     56  49  77 CALM      29.95S



USA.gov is the U.S. government's official web portal to all federal, state and local government web resources and services.